• Join FlightAware (Why Join?)
  • Login
  • US Flag GB Flag 
03:49 EST


 

Airport Tracker/Info


-or-


 

Live Flight TrackerFlight Track Log ✈ UAL4583 ✈ 04-May-2013 ✈ KIAH - KGRR

Flight Track Log - Related Links

Times and Time Zones

All times are in EDT time to prevent confusion due to time zone crossing. See the UAL4583 flight status page for this flight to view local times or setup timezone preferences in your user account.

Time Position Orientation Groundspeed Altitude Reporting Facility
EDT Latitude Longitude Course Direction KTS MPH feet Rate Location/Type
14:41 29.9594 -95.3414 30° Northeast 172 198 600  Level Houston Center
14:41 29.9408 -95.3678 231° Southwest 208 239 2,000 2,341 Climbing Houston Center
14:43 30.0139 -95.3589 North 245 282 5,400 2,557 Climbing Houston Center
14:43 30.0700 -95.3328 22° Northeast 264 304 7,200 2,468 Climbing Houston Center
14:44 30.4075 -95.1629 23° Northeast  Level FlightAware Approximate
14:45 30.5086 -95.1049 27° Northeast  Level FlightAware Approximate
14:45 30.1550 -95.2906 23° Northeast 279 321 10,500  Level Houston Center
14:46 30.6064 -95.0457 30° Northeast  Level FlightAware Approximate
14:46 30.2317 -95.2525 23° Northeast 292 336 11,600  Level Houston Center
14:47 30.3222 -95.2075 23° Northeast 339 390 12,600 1,065 Climbing Houston Center
14:48 30.4181 -95.1608 23° Northeast 363 418 13,800 1,403 Climbing Houston Center
14:49 30.5308 -95.1019 24° Northeast 367 422 15,500 1,355 Climbing Houston Center
14:50 30.6294 -95.0508 24° Northeast 380 437 16,600 1,016 Climbing Houston Center
14:51 30.7292 -94.9878 29° Northeast 398 458 17,600 1,065 Climbing Houston Center
14:52 30.8297 -94.9253 28° Northeast 406 467 18,800 1,210 Climbing Houston Center
14:53 30.9292 -94.8633 28° Northeast 407 468 20,100 1,361 Climbing Houston Center
14:54 31.0278 -94.8025 28° Northeast 405 466 21,500 1,282 Climbing Fort Worth Center
14:55 31.1244 -94.7392 29° Northeast 400 460 22,600 950 Climbing Fort Worth Center
14:56 31.2317 -94.6731 28° Northeast 395 455 23,400 900 Climbing Fort Worth Center
14:57 31.3242 -94.6069 31° Northeast 401 461 24,400 850 Climbing Fort Worth Center
14:58 31.4414 -94.5256 31° Northeast 433 498 25,100 600 Climbing Fort Worth Center
14:59 31.5461 -94.4517 31° Northeast 439 505 25,600 650 Climbing Fort Worth Center
15:00 31.6528 -94.3775 31° Northeast 439 505 26,400 900 Climbing Fort Worth Center
15:01 31.7594 -94.3031 31° Northeast 439 505 27,400 1,000 Climbing Fort Worth Center
15:02 31.8644 -94.2358 29° Northeast 439 505 28,400 1,000 Climbing Fort Worth Center
15:03 31.9694 -94.1808 24° Northeast 427 491 29,400 1,050 Climbing Fort Worth Center
15:04 32.0767 -94.1306 22° Northeast 415 478 30,500 950 Climbing Fort Worth Center
15:05 32.1611 -94.0883 23° Northeast 410 472 31,300 900 Climbing Fort Worth Center
15:06 32.2764 -94.0275 24° Northeast 410 472 32,300 1,000 Climbing Fort Worth Center
15:07 32.3814 -93.9719 24° Northeast 410 472 33,300 1,000 Climbing Fort Worth Center
15:08 32.4906 -93.9211 21° North 410 472 34,300 850 Climbing Fort Worth Center
15:09 32.5956 -93.8675 23° Northeast 410 472 35,000 350 Climbing Fort Worth Center
15:10 32.7069 -93.8164 21° North 410 472 35,000  Level Fort Worth Center
15:11 32.8219 -93.7572 23° Northeast 422 486 35,000  Level Fort Worth Center
15:12 32.9494 -93.6928 23° Northeast 440 506 35,000  Level Fort Worth Center
15:13 33.0647 -93.6358 22° Northeast 446 513 35,000  Level Fort Worth Center
15:14 33.1778 -93.5814 22° Northeast 446 513 35,000  Level Fort Worth Center
15:16 33.3803 -93.4792 23° Northeast 441 507 35,000  Level Memphis Center
15:17 33.4944 -93.4211 23° Northeast 441 507 35,000  Level Memphis Center
15:18 33.6086 -93.3628 23° Northeast 441 507 35,000  Level Memphis Center
15:19 33.7228 -93.3067 22° Northeast 441 507 35,000  Level Memphis Center
15:20 33.8389 -93.2481 23° Northeast 441 507 35,000  Level Memphis Center
15:21 33.9550 -93.1894 23° Northeast 441 507 35,000  Level Memphis Center
15:22 34.0711 -93.1281 24° Northeast 441 507 35,000  Level Memphis Center
15:23 34.1872 -93.0664 24° Northeast 441 507 35,000  Level Memphis Center
15:24 34.3011 -93.0047 24° Northeast 441 507 35,000  Level Memphis Center
15:25 34.4214 -92.9431 23° Northeast 441 507 35,000  Level Memphis Center
15:26 34.5356 -92.8808 24° Northeast 441 507 35,000  Level Memphis Center
15:27 34.6514 -92.8236 22° Northeast 441 507 35,000  Level Memphis Center
15:28 34.7672 -92.7639 23° Northeast 441 507 35,000  Level Memphis Center
15:29 34.8833 -92.6989 25° Northeast 441 507 35,000  Level Memphis Center
15:30 35.0033 -92.6361 23° Northeast 449 517 35,000  Level Memphis Center
15:31 35.1233 -92.5758 22° Northeast 455 524 35,000  Level Memphis Center
15:32 35.2456 -92.5106 24° Northeast 461 531 35,000  Level Memphis Center
15:33 35.3656 -92.4450 24° Northeast 466 536 35,000  Level Memphis Center
15:34 35.4875 -92.3817 23° Northeast 466 536 35,000  Level Memphis Center
15:35 35.6072 -92.3181 23° Northeast 460 529 35,000  Level Memphis Center
15:36 35.7272 -92.2494 25° Northeast 460 529 35,000  Level Memphis Center
15:37 35.8450 -92.1881 23° Northeast 460 529 35,000  Level Memphis Center
15:38 35.9628 -92.1239 24° Northeast 460 529 35,000  Level Memphis Center
15:39 36.0844 -92.0572 24° Northeast 455 524 35,000  Level Memphis Center
15:40 36.2083 -91.9903 24° Northeast 455 524 35,000  Level Memphis Center
15:41 36.3175 -91.9306 24° Northeast 472 543 35,000  Level Memphis Center
15:43 36.5842 -91.7806 24° Northeast 470 541 35,000  Level Kansas City Center
15:44 36.7014 -91.7169 24° Northeast 463 533 35,000  Level Kansas City Center
15:45 36.8197 -91.6497 24° Northeast 465 535 35,000  Level Kansas City Center
15:46 36.9358 -91.5892 23° Northeast 456 525 35,000  Level Kansas City Center
15:47 37.0753 -91.5106 24° Northeast 456 525 35,000  Level Kansas City Center
15:48 37.1922 -91.4450 24° Northeast 458 527 35,000  Level Kansas City Center
15:49 37.3083 -91.3781 25° Northeast 459 528 35,000  Level Kansas City Center
15:50 37.4253 -91.3128 24° Northeast 459 528 35,000  Level Kansas City Center
15:51 37.5411 -91.2481 24° Northeast 457 526 35,000  Level Kansas City Center
15:52 37.6539 -91.1839 24° Northeast 448 516 35,000  Level Kansas City Center
15:53 37.7669 -91.1194 24° Northeast 446 513 35,000  Level Kansas City Center
15:54 37.8744 -91.0581 24° Northeast 449 517 35,000  Level Kansas City Center
15:55 38.0100 -90.9808 24° Northeast 448 516 35,000  Level Kansas City Center
15:56 38.1236 -90.9139 25° Northeast 449 517 35,000  Level Kansas City Center
15:57 38.2367 -90.8486 24° Northeast 448 516 35,000  Level Kansas City Center
15:58 38.3322 -90.7531 38° Northeast 442 509 35,000  Level Kansas City Center
15:59 38.4322 -90.6433 41° Northeast 442 509 35,000  Level Kansas City Center
16:00 38.5244 -90.5397 41° Northeast 441 507 35,000  Level Kansas City Center
16:02 38.6158 -90.4383 41° Northeast 437 503 35,000 629 Level Kansas City Center
16:03 38.7058 -90.3428 40° Northeast 427 491 36,300 976 Climbing Kansas City Center
16:04 38.7903 -90.2453 42° Northeast 417 480 37,000 341 Climbing Kansas City Center
16:05 38.8769 -90.1486 41° Northeast 411 473 37,000  Level Kansas City Center
16:06 38.9692 -90.0428 42° Northeast 434 499 37,000  Level Kansas City Center
16:07 39.0817 -89.9169 41° Northeast 442 509 37,000  Level Kansas City Center
16:08 39.1739 -89.8108 42° Northeast 445 512 37,000  Level Kansas City Center
16:09 39.2661 -89.7058 41° Northeast 450 518 37,000  Level Kansas City Center
16:10 39.3578 -89.5992 42° Northeast 447 514 37,000  Level Kansas City Center
16:11 39.4506 -89.4953 41° Northeast 443 510 37,000  Level Kansas City Center
16:12 39.5394 -89.3925 42° Northeast 434 499 37,000  Level Kansas City Center
16:13 39.6281 -89.2889 42° Northeast 431 496 37,000  Level Kansas City Center
16:14 39.7236 -89.1775 42° Northeast 429 494 37,000  Level Kansas City Center
16:15 39.8122 -89.0744 42° Northeast 428 493 37,000  Level Kansas City Center
16:16 39.9011 -88.9697 42° Northeast 432 497 37,000  Level Kansas City Center
16:17 40.0125 -88.8464 40° Northeast 437 503 37,000  Level Kansas City Center
16:18 40.1058 -88.7442 40° Northeast 440 506 37,000  Level Kansas City Center
16:19 40.2008 -88.6419 39° Northeast 443 510 37,000  Level Kansas City Center
16:20 40.2953 -88.5367 40° Northeast 445 512 37,000 -390 Level Kansas City Center
16:21 40.3903 -88.4331 40° Northeast 447 514 36,200 -947 Descending Kansas City Center
16:22 40.5050 -88.3031 41° Northeast 436 502 34,900 -1,038 Descending Chicago Center
16:23 40.5964 -88.2019 40° Northeast 434 499 33,900 -823 Descending Chicago Center
16:24 40.6861 -88.1019 40° Northeast 430 495 33,200 -435 Descending Chicago Center
16:25 40.7783 -87.9975 41° Northeast 437 503 33,000 -98 Descending Chicago Center
16:26 40.8683 -87.8956 41° Northeast 435 501 33,000  Level Chicago Center
16:27 40.9783 -87.7706 41° Northeast 438 504 33,000  Level Chicago Center
16:28 41.0744 -87.6664 39° Northeast 448 516 33,000 -242 Level Chicago Center
16:29 41.1692 -87.5614 40° Northeast 451 519 32,500 -732 Descending Chicago Center
16:30 41.2622 -87.4519 41° Northeast 452 520 31,500 -1,073 Descending Chicago Center
16:31 41.3761 -87.3217 41° Northeast 454 522 30,300 -1,065 Descending Chicago Center
16:32 41.4717 -87.2128 40° Northeast 457 526 29,300 -919 Descending Chicago Center
16:34 41.5653 -87.1031 41° Northeast 454 522 28,400 -927 Descending Chicago Center
16:35 41.6597 -86.9917 41° Northeast 457 526 27,400 -976 Descending Chicago Center
16:36 41.7508 -86.8853 41° Northeast 441 507 26,400 -968 Descending Chicago Center
16:37 41.8403 -86.7794 41° Northeast 433 498 25,400 -1,073 Descending Chicago Center
16:38 41.9489 -86.6528 41° Northeast 438 504 24,200 -1,073 Descending Chicago Center
16:39 42.0425 -86.5406 42° Northeast 446 513 23,200 -1,016 Descending Chicago Center
16:40 42.1350 -86.4297 42° Northeast 445 512 22,100 -1,512 Descending Chicago Center
16:41 42.2217 -86.3256 42° Northeast 424 488 20,100 -2,098 Descending Chicago Center
16:42 42.3000 -86.2325 41° Northeast 407 468 17,800 -2,468 Descending Chicago Center
16:43 42.3997 -86.1100 42° Northeast 407 468 15,000 -2,226 Descending Chicago Center
16:44 42.4781 -86.0153 42° Northeast 386 444 13,200 -1,220 Descending Chicago Center
16:45 42.5556 -85.9214 42° Northeast 378 435 12,500 -878 Descending Chicago Center
16:46 42.6322 -85.8292 41° Northeast 373 429 11,400 -1,113 Descending Chicago Center
16:47 42.6981 -85.7481 42° Northeast 329 379 10,200 -1,887 Descending Chicago Center
16:48 42.7714 -85.7161 18° North 296 341 7,500 -2,829 Descending Chicago Center
16:49 42.8564 -85.7089 North 260 299 4,400 -2,488 Descending Chicago Center
16:50 42.8661 -85.6383 79° East 212 244 2,400 -1,355 Descending Chicago Center
16:51 42.8722 -85.5822 82° East 175 201 1,600 -774 Descending Chicago Center